Stations météo

réclame
Mon MeteoGroup
Baruth, Allemagne (10376): Température de l'air & dewpoint: 08.08.2018 23:00:00 - 14.08.2018 23:00:00 (CEST)Baruth, Allemagne (10376): Température de l'air 5cm & Température de l'air -5cm: 08.08.2018 23:00:00 - 14.08.2018 23:00:00 (CEST)Baruth, Allemagne (10376): Température de l'air -20cm & Température de l'air -100cm: 08.08.2018 23:00:00 - 14.08.2018 23:00:00 (CEST)Baruth, Allemagne (10376): Vitesse du vent & gusts: 08.08.2018 23:00:00 - 14.08.2018 23:00:00 (CEST)Baruth, Allemagne (10376): Direction du vent: 08.08.2018 23:00:00 - 14.08.2018 23:00:00 (CEST)Baruth, Allemagne (10376): reduced air pressure: 08.08.2018 23:00:00 - 14.08.2018 23:00:00 (CEST)Baruth, Allemagne (10376): visibility: 08.08.2018 23:00:00 - 14.08.2018 23:00:00 (CEST)Baruth, Allemagne (10376): Ensoleillement: 08.08.2018 23:00:00 - 14.08.2018 23:00:00 (CEST)Baruth, Allemagne (10376): Quantités de précipitations: 08.08.2018 23:00:00 - 14.08.2018 23:00:00 (CEST)
Date & Time tt [°C] td [°C] tt 5cm [°C] tt -5cm [°C] tt -20cm [°C] tt -100cm [°C] ff [km/h] ff [knt] fx [km/h] fx [knt] dd ppp [hPa] vv [km] sd [min] rr [mm]
14.08.2018 23:00:00 17,9 15,6 17,5 20,8 23,6 20,7 13 7 33 18 W 1014,1 44 0 0,0
14.08.2018 22:00:00 18,3 15,8 17,6 21,7 24,0 20,7 18 10 37 20 W 1013,6 70 0 0,0
14.08.2018 21:00:00 18,2 16,4 17,8 22,7 24,4 20,7 14 8 41 22 W 1013,0 48 0 3,7
14.08.2018 20:00:00 20,7 14,9 20,5 24,9 24,6 20,7 17 9 32 18 WSW 1011,9 70 2 0,0
14.08.2018 19:00:00 22,4 14,1 22,5 26,0 24,5 20,7 23 12 44 24 W 1011,1 70 24 0,0
14.08.2018 18:00:00 23,5 14,4 24,8 26,5 24,4 20,7 22 12 39 21 W 1011,1 42 53 0,0
14.08.2018 17:00:00 21,9 16,1 22,6 26,2 24,3 20,7 15 8 49 26 WSW 1011,1 42 20 0,2
14.08.2018 16:00:00 24,0 13,1 25,1 27,4 24,0 20,7 22 12 42 23 W 1010,6 64 4 0,0
14.08.2018 15:00:00 23,6 12,5 25,1 27,0 23,7 20,7 22 12 40 21 W 1010,8 61 9 0,0
14.08.2018 14:00:00 23,7 12,8 25,5 25,9 23,4 20,7 15 8 26 14 W 1010,5 66 3 0,0
14.08.2018 13:00:00 22,6 13,0 24,4 25,7 23,1 20,7 14 8 28 15 W 1010,4 63 5 0,0
14.08.2018 12:00:00 22,4 13,1 24,1 25,5 22,7 20,7 15 8 29 15 W 1010,5 60 10 0,0
14.08.2018 11:00:00 21,9 13,3 25,2 24,6 22,4 20,7 14 8 26 14 WSW 1010,3 43 19 0,0
14.08.2018 10:00:00 20,6 13,7 22,3 23,6 22,1 20,7 17 9 31 17 W 1010,4 49 43 0,0
14.08.2018 09:00:00 20,1 13,6 21,6 21,5 22,1 20,7 13 7 25 14 WSW 1010,1 43 60 0,0
14.08.2018 08:00:00 18,6 13,2 19,1 20,1 22,2 20,7 10 5 18 10 WSW 1009,7 48 60 0,0
14.08.2018 07:00:00 16,1 12,5 15,2 19,5 22,6 20,7 8 4 12 6 W 1009,5 47 13 0,0
14.08.2018 06:00:00 16,2 12,3 14,9 20,0 22,9 20,7 10 5 13 7 W 1009,0 70 0 0,0
14.08.2018 05:00:00 17,3 12,7 15,7 20,7 23,2 20,7 10 6 22 12 WSW 1008,6 70 0 0,0
14.08.2018 04:00:00 18,7 13,5 17,9 21,3 23,5 20,7 15 8 21 12 W 1008,1 66 0 0,0
14.08.2018 03:00:00 18,2 14,0 16,1 21,6 23,9 20,7 6 4 12 7 SW 1007,9 54 0 0,0
14.08.2018 02:00:00 18,4 14,0 15,3 22,0 24,2 20,7 5 3 8 4 S 1007,8 62 0 0,0
14.08.2018 01:00:00 19,9 14,2 17,6 22,5 24,6 20,7 4 2 11 6 SW 1007,7 66 0 0,0
14.08.2018 00:00:00 20,2 14,4 18,8 23,0 24,9 20,7 7 4 14 7 SSW 1007,7 70 0 0,0
13.08.2018 23:00:00 20,2 14,6 18,5 23,5 25,4 20,7 5 3 15 8 SSW 1007,8 70 0 0,0
13.08.2018 22:00:00 21,0 14,4 19,7 24,2 25,8 20,7 8 4 19 10 SSW 1007,6 70 0 0,0
13.08.2018 21:00:00 21,2 14,4 20,4 25,0 26,3 20,7 10 6 20 11 WSW 1007,6 70 0 0,0
13.08.2018 20:00:00 20,1 16,1 19,4 26,2 26,7 20,7 9 5 25 14 W 1007,3 69 0 0,0
13.08.2018 19:00:00 21,9 14,5 20,1 28,2 27,0 20,8 3 2 41 22 SW 1006,4 68 0 0,1
13.08.2018 18:00:00 25,5 11,1 25,8 30,3 27,0 20,8 34 18 50 27 W 1007,7 70 4 0,0
13.08.2018 17:00:00 29,4 9,3 29,9 31,6 26,8 20,8 12 7 29 16 W 1006,2 70 1 0,0
13.08.2018 16:00:00 30,6 7,5 31,7 33,5 26,3 20,8 23 12 35 19 W 1005,9 70 17 0,0
13.08.2018 15:00:00 31,1 7,3 33,6 34,2 25,4 20,8 15 8 28 15 W 1006,2 70 44 0,0
13.08.2018 14:00:00 32,2 4,9 35,2 34,0 24,3 20,8 16 9 29 16 W 1006,5 43 60 0,0
13.08.2018 13:00:00 30,6 3,8 34,7 32,3 23,2 20,8 15 8 27 14 WSW 1006,9 42 60 0,0
13.08.2018 12:00:00 29,3 7,3 33,1 29,9 22,1 20,8 7 4 13 7 SE 1007,4 61 60 0,0
13.08.2018 11:00:00 26,8 10,1 30,3 26,6 21,3 20,8 4 2 10 5 SSE 1007,9 70 60 0,0
13.08.2018 10:00:00 24,1 9,8 26,2 23,2 20,7 20,8 4 2 7 4 ESE 1008,2 70 59 0,0
13.08.2018 09:00:00 20,0 10,4 21,6 20,1 20,5 20,8 3 2 8 4 SE 1008,7 70 60 0,0
13.08.2018 08:00:00 15,1 8,7 15,7 17,6 20,7 20,8 4 2 10 5 ESE 1009,1 56 60 0,0
13.08.2018 07:00:00 11,8 7,3 10,7 16,5 21,1 20,8 8 5 13 7 ESE 1009,1 37 29 0,0
13.08.2018 06:00:00 10,2 6,4 7,2 16,9 21,6 20,8 9 5 11 6 ESE 1009,3 37 0 0,0
13.08.2018 05:00:00 10,8 6,1 8,4 17,5 22,1 20,8 7 4 13 7 E 1009,6 54 0 0,0
13.08.2018 04:00:00 11,4 6,4 8,8 18,1 22,6 20,8 6 4 11 6 E 1010,0 53 0 0,0
13.08.2018 03:00:00 12,6 6,8 11,2 18,7 23,2 20,8 9 5 11 6 E 1010,6 55 0 0,0
13.08.2018 02:00:00 12,6 7,1 9,1 19,5 23,8 20,8 7 4 10 5 E 1011,0 63 0 0,0
13.08.2018 01:00:00 12,5 7,3 9,6 20,4 24,4 20,8 5 3 10 6 E 1011,4 70 0 0,0
13.08.2018 00:00:00 12,8 7,6 10,5 21,5 25,1 20,9 5 3 8 4 ESE 1011,9 70 0 0,0
12.08.2018 23:00:00 15,2 8,0 11,8 22,8 25,7 20,9 5 3 8 4 ESE 1012,2 70 0 0,0
12.08.2018 22:00:00 16,0 9,1 13,7 24,3 26,3 20,9 2 1 5 3 E 1012,4 70 0 0,0
12.08.2018 21:00:00 18,7 8,0 15,8 26,2 26,8 20,9 2 1 4 2 SE 1012,6 70 0 0,0
12.08.2018 20:00:00 23,4 6,9 20,7 28,5 27,1 20,9 2 1 14 8 W 1012,6 70 21 0,0
12.08.2018 19:00:00 25,1 4,0 24,6 30,6 27,1 21,0 13 7 18 10 WSW 1013,0 70 45 0,0
12.08.2018 18:00:00 26,5 4,4 27,4 32,3 26,8 21,0 9 5 22 12 WSW 1013,5 70 60 0,0
12.08.2018 17:00:00 27,0 3,1 29,3 33,5 26,2 21,0 9 5 31 17 SW 1014,3 68 60 0,0
12.08.2018 16:00:00 26,7 3,8 30,3 33,9 25,4 21,1 10 6 31 17 WSW 1015,1 44 60 0,0
12.08.2018 15:00:00 26,1 4,3 29,5 33,6 24,3 21,1 20 11 41 22 S 1015,9 44 60 0,0
12.08.2018 14:00:00 25,5 5,2 29,1 32,6 23,2 21,1 12 6 30 16 WSW 1016,8 38 60 0,0
12.08.2018 13:00:00 24,3 4,9 28,5 30,5 22,0 21,1 14 7 31 17 WSW 1017,6 52 60 0,0
12.08.2018 12:00:00 23,1 5,9 26,8 28,1 20,9 21,2 16 9 30 16 SW 1018,5 46 60 0,0
12.08.2018 11:00:00 22,0 6,5 25,1 25,2 20,0 21,2 16 8 24 13 SSW 1019,0 36 60 0,0
12.08.2018 10:00:00 20,2 7,6 23,0 21,9 19,3 21,2 10 5 16 9 S 1019,3 59 60 0,0
12.08.2018 09:00:00 18,5 9,3 19,8 18,5 19,1 21,2 4 2 8 5 SE 1019,8 70 60 0,0
12.08.2018 08:00:00 13,7 8,4 14,0 15,6 19,2 21,2 3 2 5 3 E 1020,2 67 60 0,0
12.08.2018 07:00:00 8,4 6,4 7,5 14,4 19,6 21,2 0 0 5 3 N 1020,8 49 18 0,0
12.08.2018 06:00:00 7,6 5,7 5,5 14,6 20,1 21,2 2 1 7 4 S 1021,0 42 0 0,0
12.08.2018 05:00:00 8,0 6,1 5,7 15,1 20,6 21,3 3 2 8 4 SW 1021,0 54 0 0,0
12.08.2018 04:00:00 8,4 6,5 6,0 15,7 21,2 21,3 3 1 5 3 SSW 1020,9 57 0 0,0
12.08.2018 03:00:00 10,0 7,2 6,9 16,4 21,7 21,3 2 1 8 5 WSW 1021,0 70 0 0,0
12.08.2018 02:00:00 10,0 6,5 7,0 17,2 22,3 21,3 5 3 9 5 SW 1021,1 70 0 0,0
12.08.2018 01:00:00 10,2 6,5 7,6 18,1 22,9 21,3 4 2 7 4 SSW 1021,3 70 0 0,0
12.08.2018 00:00:00 11,4 6,3 8,6 19,2 23,6 21,3 5 3 9 5 W 1021,4 70 0 0,0
11.08.2018 23:00:00 13,8 6,9 9,9 20,4 24,2 21,4 6 3 9 5 WSW 1021,2 70 0 0,0
11.08.2018 22:00:00 17,1 6,0 13,5 21,7 24,7 21,4 6 3 19 11 WNW 1020,8 70 0 0,0
11.08.2018 21:00:00 18,6 4,9 16,7 23,3 25,3 21,4 11 6 26 14 WNW 1020,2 70 19 0,0
11.08.2018 20:00:00 20,4 4,5 19,3 25,3 25,6 21,5 16 9 39 21 W 1019,5 70 59 0,0
11.08.2018 19:00:00 22,1 3,6 22,9 27,7 25,6 21,5 24 13 44 24 W 1019,2 56 60 0,0
11.08.2018 18:00:00 22,2 3,7 22,7 28,8 25,4 21,5 22 12 42 23 WNW 1018,8 70 40 0,0
11.08.2018 17:00:00 24,2 5,9 26,7 29,4 25,0 21,5 25 14 48 26 W 1018,8 70 38 0,0
11.08.2018 16:00:00 24,1 5,8 27,5 30,9 24,2 21,6 28 15 54 29 W 1019,1 33 54 0,0
11.08.2018 15:00:00 23,5 6,4 26,0 29,8 23,3 21,6 23 12 41 22 W 1019,3 43 52 0,0
11.08.2018 14:00:00 22,3 7,8 25,4 27,1 22,6 21,6 21 12 37 20 W 1019,5 70 19 0,0
11.08.2018 13:00:00 23,7 8,5 26,3 26,7 21,9 21,7 14 7 40 22 W 1019,1 48 23 0,0
11.08.2018 12:00:00 21,8 8,3 23,0 23,8 21,4 21,7 21 11 36 20 W 1019,6 70 3 0,0
11.08.2018 11:00:00 21,6 7,5 22,7 22,6 21,0 21,7 20 11 32 17 WSW 1019,5 70 0 0,0
11.08.2018 10:00:00 20,5 9,4 21,5 21,4 20,6 21,7 10 5 30 16 SW 1019,6 70 27 0,0
11.08.2018 09:00:00 18,7 9,7 19,5 19,0 20,5 21,7 12 6 24 13 SW 1019,8 70 7 0,0
11.08.2018 08:00:00 18,2 10,4 18,6 18,0 20,6 21,8 15 8 24 13 SW 1019,7 70 26 0,0
11.08.2018 07:00:00 17,1 9,2 16,5 16,7 20,8 21,8 8 4 18 10 SW 1019,7 70 0 0,0
11.08.2018 06:00:00 13,4 8,6 13,0 16,2 21,2 21,8 2 1 9 5 WSW 1020,0 68 0 0,0
11.08.2018 05:00:00 12,2 8,4 10,9 16,6 21,7 21,8 7 4 13 7 ESE 1020,2 46 0 0,0
11.08.2018 04:00:00 13,3 8,6 11,9 17,3 22,2 21,8 9 5 13 7 ESE 1020,8 61 0 0,0
11.08.2018 03:00:00 14,4 8,7 13,1 18,1 22,6 21,8 9 5 14 7 ESE 1021,1 70 0 0,0
11.08.2018 02:00:00 15,5 8,6 14,4 18,7 23,1 21,8 10 5 14 7 ESE 1021,5 70 0 0,0
11.08.2018 01:00:00 14,1 9,1 13,3 19,0 23,6 21,9 9 5 12 7 ESE 1022,0 67 0 0,0
11.08.2018 00:00:00 14,6 9,2 12,8 19,7 24,2 21,9 8 4 10 5 ESE 1022,0 70 0 0,0
10.08.2018 23:00:00 14,4 10,3 12,2 20,5 24,8 21,9 4 2 5 3 SE 1022,2 63 0 0,0
10.08.2018 22:00:00 16,1 9,7 13,6 21,9 25,4 21,9 3 1 4 2 S 1022,3 70 0 0,0
10.08.2018 21:00:00 18,9 8,9 15,7 23,7 25,8 21,9 0 0 8 4 N 1021,8 70 22 0,0
10.08.2018 20:00:00 21,5 7,6 18,7 25,6 26,1 21,9 2 1 15 8 W 1021,3 70 34 0,0
10.08.2018 19:00:00 23,7 5,4 24,8 27,4 26,1 22,0 6 3 22 12 NNW 1021,1 70 53 0,0
10.08.2018 18:00:00 23,6 6,8 24,7 28,7 25,9 22,0 9 5 21 12 WNW 1021,3 70 39 0,0
10.08.2018 17:00:00 24,0 7,2 26,3 29,6 25,4 22,0 11 6 28 15 NW 1021,6 70 46 0,0
10.08.2018 16:00:00 24,1 8,0 26,3 29,8 24,8 22,0 17 9 34 18 W 1021,6 56 58 0,0
10.08.2018 15:00:00 24,1 8,2 27,1 28,7 24,1 22,0 12 6 31 17 W 1021,5 55 58 0,0
10.08.2018 14:00:00 22,9 9,5 25,3 26,1 23,6 22,0 15 8 40 22 W 1021,5 47 46 0,0
10.08.2018 13:00:00 22,1 10,2 23,4 24,2 23,3 22,0 26 14 39 21 W 1021,3 54 46 0,0
10.08.2018 12:00:00 21,4 10,5 23,1 22,1 23,2 22,0 27 15 41 22 W 1021,2 68 12 0,0
10.08.2018 11:00:00 19,6 11,5 20,1 21,0 23,3 22,0 18 10 33 18 W 1021,1 70 0 0,0
10.08.2018 10:00:00 18,8 11,1 18,9 20,1 23,6 21,9 25 13 42 23 W 1020,4 70 0 0,0
10.08.2018 09:00:00 20,3 13,6 19,8 20,3 23,9 21,9 23 12 39 21 WSW 1018,6 70 0 0,0
10.08.2018 08:00:00 20,7 13,4 20,4 20,2 24,3 21,9 16 9 31 17 WSW 1017,9 70 0 0,0
10.08.2018 07:00:00 20,8 13,7 20,2 20,4 24,7 21,9 19 11 37 20 WSW 1016,5 70 0 0,0
10.08.2018 06:00:00 21,2 14,8 20,6 20,7 25,2 21,9 19 11 35 19 WSW 1015,6 70 0 0,0
10.08.2018 05:00:00 20,8 15,2 20,1 20,8 25,8 21,8 18 10 29 16 WSW 1014,9 70 0 0,0
10.08.2018 04:00:00 19,8 15,4 18,4 21,4 26,5 21,8 12 7 21 12 WSW 1014,3 61 0 0,0
10.08.2018 03:00:00 19,8 15,8 18,4 22,2 27,2 21,8 15 8 25 13 WSW 1013,6 64 0 0,0
10.08.2018 02:00:00 19,5 17,5 18,8 23,3 28,0 21,8 14 7 20 11 W 1013,0 25 0 0,0
10.08.2018 01:00:00 20,2 17,8 19,3 24,3 28,9 21,8 14 8 25 13 W 1012,4 35 0 0,0
10.08.2018 00:00:00 20,6 19,3 20,1 25,9 29,7 21,8 10 5 18 10 SW 1011,1 13 0 0,5
09.08.2018 23:00:00 21,3 19,4 20,9 27,0 30,6 21,8 11 6 52 28 WNW 1010,3 9 0 5,3
09.08.2018 22:00:00 24,1 18,0 21,9 30,9 31,2 21,8 38 21 59 32 WSW 1010,5 10 0 0,0
09.08.2018 21:00:00 28,6 14,9 27,7 32,4 31,7 21,8 13 7 26 14 ESE 1008,4 47 0 0,0
09.08.2018 20:00:00 30,8 15,4 30,3 34,4 31,9 21,8 18 10 39 21 ESE 1008,5 40 20 0,0
09.08.2018 19:00:00 33,2 14,9 34,2 36,4 31,8 21,8 14 8 29 16 ESE 1008,8 45 52 0,0
09.08.2018 18:00:00 34,4 13,9 36,2 37,7 31,6 21,8 13 7 29 16 E 1009,4 46 54 0,0
09.08.2018 17:00:00 34,4 16,3 37,4 38,8 31,0 21,8 12 7 30 16 E 1010,2 39 58 0,0
09.08.2018 16:00:00 33,8 15,7 37,6 39,2 30,1 21,8 13 7 27 14 ESE 1010,9 34 60 0,0
09.08.2018 15:00:00 32,9 15,9 36,5 38,8 29,1 21,8 15 8 26 14 SE 1012,1 39 59 0,0
09.08.2018 14:00:00 32,7 18,1 37,0 37,7 28,0 21,8 12 7 24 13 SE 1012,9 26 60 0,0
09.08.2018 13:00:00 29,9 17,8 35,2 35,7 26,9 21,7 7 4 19 10 ESE 1013,9 27 60 0,0
09.08.2018 12:00:00 28,3 18,1 32,7 33,2 25,9 21,7 6 4 14 8 E 1014,8 25 60 0,0
09.08.2018 11:00:00 26,0 17,9 30,8 30,3 25,1 21,7 5 3 16 9 E 1015,4 22 60 0,0
09.08.2018 10:00:00 24,6 17,8 27,7 27,2 24,7 21,7 5 3 19 11 ENE 1015,6 21 60 0,0
09.08.2018 09:00:00 23,5 17,7 25,0 24,5 24,6 21,7 6 3 17 9 NE 1015,5 17 60 0,0
09.08.2018 08:00:00 21,5 18,0 21,1 22,5 24,8 21,7 3 2 8 4 NNW 1015,4 15 59 0,0
09.08.2018 07:00:00 17,9 16,3 17,5 21,5 25,2 21,6 4 2 7 4 W 1015,5 11 11 0,0
09.08.2018 06:00:00 17,6 16,2 16,1 21,7 25,7 21,6 5 3 10 5 WNW 1015,2 12 0 0,0
09.08.2018 05:00:00 17,9 16,7 16,2 22,2 26,2 21,6 6 3 11 6 WNW 1014,6 15 0 0,0
09.08.2018 04:00:00 18,3 17,2 16,8 22,9 26,7 21,6 6 3 8 4 WNW 1014,4 16 0 0,0
09.08.2018 03:00:00 18,4 16,9 16,5 23,6 27,3 21,5 6 3 9 5 W 1014,1 16 0 0,0
09.08.2018 02:00:00 18,3 17,4 16,9 24,3 27,9 21,5 4 2 7 4 W 1013,9 0,4 0 0,0
09.08.2018 01:00:00 19,0 18,1 18,1 25,2 28,6 21,5 6 4 8 5 W 1013,7 10 0 0,0
09.08.2018 00:00:00 20,3 18,1 19,2 26,2 29,3 21,5 8 4 11 6 WNW 1013,4 18 0 0,0
08.08.2018 23:00:00 20,5 18,9 19,5 27,4 30,0 21,5 3 2 8 5 W 1013,0 17 0 0,0

tt = Température de l'air
td = dewpoint
tt 5cm = Température de l'air 5cm
tt -5cm = Température de l'air -5cm
tt -20cm = Température de l'air -20cm
tt -100cm = Température de l'air -100cm
ff = Vitesse du vent
fx = gusts
dd = Direction du vent
ppp = reduced air pressure
vv = visibility
sd = Ensoleillement
rr = Quantités de précipitations

stations d'obs. à proximité